Weather History for St. Joseph, MO

Change the Weather History Date:

Sunday, January 13, 2013

  Actual Average Record
Temperature  
Mean Temperature 18 °F 27 °F  
Max Temperature 25 °F 37 °F 65 °F (1996)
Min Temperature 11 °F 17 °F -19 °F (1916)
Degree Days  
Heating Degree Days 47 38  
Month to date heating degree days 457 497  
Since 1 July heating degree days 2553 2710  
Cooling Degree Days 0 0  
Month to date cooling degree days 0 0  
Year to date cooling degree days 0 0  
Moisture  
Dew Point 6 °F    
Average Humidity 61    
Maximum Humidity 76    
Minimum Humidity 46    
Precipitation  
Precipitation 0.00 in 0.01 in 0.71 in (1940)
Month to date precipitation 0.30 0.22  
Year to date precipitation 0.30 0.22  
Sea Level Pressure  
Sea Level Pressure 30.27 in    
Wind  
Wind Speed 9 mph (NW)    
Max Wind Speed 18 mph    
Max Gust Speed 23 mph    
Visibility 10 miles    
Events      
T = Trace of Precipitation, MM = Missing Value Source: NWS Daily Summary

Daily Weather History Graph

Daily Weather History Graph

Search for Another Location

Airport:

Trip Planner

Search our weather history database for the weather conditions in past years. The results will help you decide how hot, cold, wet, or windy it might be!

Date:

Astronomy

Jan. 13, 2013 Rise Set
Actual Time 7:39 AM CST 5:17 PM CST
Civil Twilight 7:09 AM CST 5:47 PM CST
Nautical Twilight 6:36 AM CST 6:20 PM CST
Astronomical Twilight 6:04 AM CST 6:53 PM CST
Moon 8:39 AM CST (1/13) 7:56 PM CST (1/13)
Length of Visible Light 10h 37m
Length of Day
9h 38m
Waxing Crescent, 5% of the Moon is Illuminated
Jan 13
Waxing Crescent
Jan 18
First Quarter
Jan 26
Full
Feb 3
Last Quarter
Feb 10
New

Hourly Weather History & Observations

Time (CST) Temp. Windchill Dew Point Humidity Pressure Visibility Wind Dir Wind Speed Gust Speed Precip Events Conditions
12:53 AM 18.0 °F 5.4 °F 9.0 °F 68% 30.15 in 10.0 mi NW 11.5 mph - N/A   Clear
1:53 AM 17.1 °F 4.3 °F 8.1 °F 68% 30.16 in 10.0 mi NNW 11.5 mph - N/A   Scattered Clouds
2:53 AM 16.0 °F 4.4 °F 8.1 °F 71% 30.18 in 10.0 mi NNW 9.2 mph - N/A   Mostly Cloudy
3:53 AM 16.0 °F 2.3 °F 6.1 °F 65% 30.19 in 10.0 mi NNW 12.7 mph - N/A   Overcast
4:53 AM 12.9 °F -2.8 °F 3.9 °F 67% 30.20 in 10.0 mi NNW 15.0 mph - N/A   Mostly Cloudy
5:13 AM 12.2 °F -2.5 °F 3.2 °F 67% 30.16 in 10.0 mi NNW 12.7 mph - N/A   Scattered Clouds
5:53 AM 12.9 °F 0.7 °F 3.9 °F 67% 30.22 in 10.0 mi NW 9.2 mph - N/A   Clear
6:51 AM 12.2 °F 0.7 °F 3.2 °F 67% 30.21 in 10.0 mi NW 8.1 mph - N/A   Mostly Cloudy
6:53 AM 12.9 °F 1.6 °F 5.0 °F 71% 30.25 in 10.0 mi NW 8.1 mph - N/A   Mostly Cloudy
7:53 AM 14.0 °F 2.0 °F 5.0 °F 67% 30.27 in 10.0 mi NW 9.2 mph - N/A   Overcast
8:53 AM 12.9 °F -2.2 °F 3.0 °F 65% 30.29 in 10.0 mi NW 13.8 mph - N/A   Mostly Cloudy
9:00 AM 12.2 °F -3.1 °F 3.2 °F 67% 30.26 in 10.0 mi NW 13.8 mph - N/A   Scattered Clouds
9:48 AM 14.0 °F -0.8 °F 5.0 °F 67% 30.27 in 10.0 mi NW 13.8 mph - N/A   Mostly Cloudy
9:53 AM 14.0 °F -0.8 °F 5.0 °F 67% 30.31 in 10.0 mi NW 13.8 mph - N/A   Mostly Cloudy
10:53 AM 16.0 °F 2.3 °F 6.1 °F 65% 30.31 in 10.0 mi NNW 12.7 mph - N/A   Overcast
11:31 AM 17.6 °F 4.3 °F 6.8 °F 63% 30.26 in 10.0 mi WNW 12.7 mph - N/A   Scattered Clouds
11:53 AM 19.0 °F 6.8 °F 7.0 °F 59% 30.29 in 10.0 mi WNW 11.5 mph - N/A   Clear
12:53 PM 21.9 °F 11.0 °F 7.0 °F 53% 30.28 in 10.0 mi West 10.4 mph - N/A   Clear
1:53 PM 23.0 °F 10.6 °F 7.0 °F 50% 30.27 in 10.0 mi West 13.8 mph - N/A   Clear
2:53 PM 25.0 °F 13.6 °F 7.0 °F 46% 30.28 in 10.0 mi NW 12.7 mph 17.3 mph N/A   Clear
3:53 PM 25.0 °F 13.6 °F 6.1 °F 45% 30.30 in 10.0 mi NW 12.7 mph - N/A   Clear
4:53 PM 24.1 °F 14.4 °F 6.1 °F 46% 30.33 in 10.0 mi NW 9.2 mph - N/A   Clear
5:53 PM 19.9 °F 12.1 °F 6.1 °F 55% 30.34 in 10.0 mi NW 5.8 mph - N/A   Clear
6:53 PM 18.0 °F - 7.0 °F 62% 30.34 in 10.0 mi Calm Calm - N/A   Clear
7:53 PM 15.1 °F - 6.1 °F 68% 30.35 in 10.0 mi Calm Calm - N/A   Clear
8:53 PM 17.1 °F 10.0 °F 8.1 °F 68% 30.37 in 10.0 mi WNW 4.6 mph - N/A   Clear
9:53 PM 12.0 °F 4.1 °F 6.1 °F 77% 30.38 in 10.0 mi WNW 4.6 mph - N/A   Clear
10:53 PM 12.9 °F 3.8 °F 5.0 °F 71% 30.40 in 10.0 mi NW 5.8 mph - N/A   Clear